Location: Bacea
(45.9500°N, 22.6667°E)
Time: 21:01:01
(UTC+00:00)

SL-16 R/B - Pass Details

Date: 16 October 2021
Orbit: 842 x 846 km, 71.0° (Epoch: 29 November)

Event Time Altitude Azimuth Distance (km) Brightness Sun altitude
Rises 18:03:33 0° 196° (SSW) 3,385 5.4 -25.3°
Reaches altitude 10° 18:05:59 10° 193° (SSW) 2,455 4.6 -25.8°
Enters shadow 18:09:21 37° 182° (S) 1,289 3.0 -26.3°
